Regional Weather Roundup
Issued by NWS Wakefield, VA

Home | Current Version | Previous Version | Text Only | Print | Product List | Glossary Off
Versions: 1 2 3 4 5 6 7 8 9 10 11 12 13 14 15 16 17 18 19 20 21 22 23 24 25 26 27 28 29 30 31 32 33 34 35 36 37 38 39 40 41 42 43 44 45 46 47 48 49 50

000
ASUS41 KAKQ 200415
RWRAKQ

REGIONAL WEATHER ROUNDUP
NATIONAL WEATHER SERVICE WAKEFIELD VA
1100 PM EST SUN FEB 19 2017

Note: "fair" indicates few or no clouds below 12,000 feet with no
significant weather and/or obstructions to visibility. * = Denotes
station may not report precipitation (e.g., rain,snow,etc.),
thunder or fog.

VAZ042-051-052>054-056-200500-
NORTHERN VIRGINIA

CITY           SKY/WX    TMP DP  RH WIND       PRES   REMARKS
WASH NATIONAL  PTCLDY    58  42  55 NW8       30.05R
DULLES         PTCLDY    52  40  63 NW6       30.06R
FORT BELVOIR   CLEAR     56  42  58 NW9       30.05R
QUANTICO       CLEAR     51  42  71 E3        30.07R
FREDERICKSBRG* PTCLDY    58  40  51 N3        30.06R
STAFFORD*      CLEAR     51  37  59 CALM      30.10R
WARRENTON      CLEAR     43  33  67 CALM      30.06R
CULPEPER*      CLEAR     43  35  74 CALM      30.07S
MANASSAS*      CLEAR     49  40  71 NW10      30.06S
LEESBURG*      CLEAR     50  43  76 NW9       30.07R
WINCHESTER     CLEAR     52  39  62 NW9       30.08S
FRONT ROYAL*   CLEAR     52  37  58 CALM      30.08R
LURAY*         CLEAR     45  39  81 CALM      30.09S
$$

VAZ048-049-060>072-079>083-200500-
CENTRAL AND SOUTH CENTRAL VIRGINIA

CITY           SKY/WX    TMP DP  RH WIND       PRES   REMARKS
RICHMOND       PTCLDY    56  39  53 N7        30.05R
CHESTERFIELD*  FAIR      46  27  46 CALM      30.07R
PETERSBURG*    CLEAR     45  41  86 CALM      30.06R
HANOVER        PTCLDY    57  36  45 N3        30.07R
TAPPAHANNOCK*  PTCLDY    56  26  31 NW3       30.06R
QUINTON*       FAIR      58  40  51 N3        30.05R
CHARLOTTSVILLE PTCLDY    61  33  35 NW6       30.07R
GORDONSVILLE*  CLEAR     44  37  75 CALM      30.06R
ORANGE*        PTCLDY    43  34  70 CALM      30.08S
LOUISA*        PTCLDY    48  37  66 CALM      30.06R
BUMPASS*       FAIR      49  37  62 CALM      30.07R
FARMVILLE*     PTCLDY    49  42  75 CALM      30.06R
CREWE*         FAIR      51  42  71 NW3       30.06R
FORT PICKETT*  FAIR      52  37  55 NW6       30.06R
CHASE CITY*    FAIR      53  40  63 CALM      30.07S
CLARKSVILLE*   FAIR      54  43  66 NW5       30.07S
SOUTH HILL*    CLEAR     55  43  63 NW3       30.12R
LAWRENCEVILLE* FAIR      56  42  61 NW5       30.06R
EMPORIA*       CLEAR     48  43  81 W3        30.06R
$$

VAZ088>098-200500-
SOUTHEAST VIRGINIA

CITY           SKY/WX    TMP DP  RH WIND       PRES   REMARKS
NORFOLK        CLEAR     51  45  79 CALM      30.03R
VIRGINIA BEACH CLEAR     48  39  71 SW3       30.02R
NORFOLK NAVAL  CLEAR     49  42  77 CALM      30.04R
WEST POINT*    CLEAR     43  41  92 CALM      30.06S
SALUDA*        FAIR      49  44  85 CALM      30.03S
NEWPORT NEWS   CLEAR     48  43  82 CALM      30.04R
LANGLEY AFB    CLEAR     48  43  83 NW3       30.03R
FORT EUSTIS    CLEAR     49  43  80 N3        30.01R
WILLIAMSBURG*  CLEAR     52  46  82 CALM      30.05R
HR EXEC AP*    FAIR      43  37  81 CALM      30.02R
FRANKLIN*      CLEAR     47  44  89 CALM      30.03S
US460-WAKEFLD  CLEAR     51  45  79 CALM      30.04R
$$

VAZ020-022-025-037-045-200500-
WEST CENTRAL AND SOUTHWEST VIRGINIA

CITY           SKY/WX    TMP DP  RH WIND       PRES   REMARKS
STAUNTON*      CLEAR     37  32  83 CALM      30.12S
WAYNESBORO*    PTCLDY    49  38  66 W5        30.11R
HOT SPRINGS VA CLEAR     41  39  93 W15       30.13S
LYNCHBURG      CLEAR     49  39  68 W3        30.11R
DANVILLE       CLEAR     50  41  71 W5        30.10S
SOUTH BOSTON*  FAIR      54  40  59 W3        30.09S
MARTINSVILLE   CLEAR     44  38  79 NW3       30.14S
ROANOKE        CLEAR     46  39  76 NW9       30.15S
BLACKSBURG     CLEAR     49  43  81 CALM      30.18R
DUBLIN*        CLEAR     47  41  78 CALM      30.17S
MARION*        CLEAR     45  43  94 SW3       30.19F
HILLSVILLE*    CLEAR     47  43  84 CALM      30.14S
RICHLANDS*     FAIR      49  42  77 CALM      30.17F
WISE*          CLEAR     45  45 100 CALM      30.19R
ABINGDON*      CLEAR     43  41  93 CALM      30.17F
$$

MDZ021>025-VAZ099-100-200500-
SOUTHERN MARYLAND AND THE DELMARVA PENINSULA

CITY           SKY/WX    TMP DP  RH WIND       PRES   REMARKS
PATUXENT RIVER CLEAR     55  42  61 NW9       30.04R
BAY BRIDGE APT CLEAR     54  41  62 W7        30.02S
LEONARDTOWN    CLEAR     57  37  47 W7        30.06R
DOVER          CLEAR     54  43  67 W7        29.98S
GEORGETOWN     CLEAR     55  41  59 W3        30.01R
EASTON         CLEAR     57  40  52 NW5       30.06R
CAMBRIDGE      CLEAR     54  41  62 W5        30.02R
SALISBURY      CLEAR     56  42  59 NW10      30.01R
OCEAN CITY     CLEAR     55  41  59 NW7       29.99S
WALLOPS ISLAND CLEAR     53  42  66 NW8       30.01R
ACCOMACK*      CLEAR     48  43  84 NW7       30.02R
$$

NCZ012>017-030>032-200500-
NORTH CENTRAL AND EASTERN NORTH CAROLINA

CITY           SKY/WX    TMP DP  RH WIND       PRES   REMARKS
ROANOKE RAPIDS FAIR      57  45  62 NW3       30.05S
RALEIGH        CLEAR     57  41  55 NW3       30.09R
ELIZABETH CITY CLEAR     49  45  86 SW3       30.03R
AHOSKIE*         N/A     50  44  80 CALM      30.04S
EDENTON*       CLEAR     53  47  79 CALM      30.04S
CURRITUCK*     CLEAR     49  46  89 CALM      30.03S
KILL DEVIL HLS NOT AVBL
MANTEO         CLEAR     47  45  93 CALM      30.04R
CAPE HATTERAS  CLEAR     51  46  83 N3        30.04R
TARBORO*       NOT AVBL
GOLDSBORO      CLEAR     54  49  82 CALM      30.04R
WASHINGTON     CLEAR     51  45  78 CALM      30.05R
GREENVILLE     PTCLDY    46  37  71 CALM      30.07R
NEW BERN       CLEAR     52  47  83 CALM      30.06R
WILMINGTON     CLEAR     52  47  83 CALM      30.06R
$$

VAZ048-200500-
ELSEWHERE

CITY           SKY/WX    TMP DP  RH WIND       PRES   REMARKS
HARRISBURG PA  PTCLDY    54  35  48 W7        30.02R
BALTIMORE      PTCLDY    51  41  68 W8        30.02R
ANNAPOLIS      CLEAR     50  41  71 W3        30.02R
ANDREWS AFB    PTCLDY    55  41  59 W8        30.03S
PHILADELPHIA   CLEAR     54  33  45 NW9       29.99R
HENDERSON NC   CLEAR     52  39  60 CALM      30.08R
GREENSBORO     CLEAR     53  41  63 NW5       30.10S
ROCKY MOUNT    CLEAR     56  45  66 NW3       30.06R
$$

VAZ100-200500-
MARINE

STATION/POSITION TIME  TEMP    WIND        PRES    WAVE   SWELL
                       AIR SEA DIR/SP/G            HT/PER HT/PER
                 (UTC) (F)     (DEG/KT/KT) (MB)    (FT/S) (FT/S)
CAPE MAY NJ      0348   46 40  280/  7/  9 1015.0R
LEWES DE         0348          280/ 10/ 11   N/A
OCEAN-CITY-INLET 0348          320/  7/  8   N/A
WACHAPREAGUE VA  0348   56 50  290/  2/  3 1016.3R
THOMAS POINT MD  0400   58 40  290/ 13/ 14   N/A
GOOSES REEF MD   0400   51 41  290/  8/  8 1017.5    1
COVE POINT MD    0348   58     330/ 10/ 17 1017.5R
SOLOMONS ISLAND  0348          320/  5/  8   N/A
BISHOPS HEAD MD  0348   56 45  310/ 11/ 13 1017.0R
PINEY POINT MD   0348          340/  9/ 11   N/A
POTOMAC MD       0400   52 43  310/  8/ 10 1016.2
CAMBRIDGE MD     0348   59 40  270/  7/ 10 1016.0R
LEWISETTA VA     0348   58 44  340/  9/ 13 1016.8R
RAPPAHANNOCK LGT 0348          310/ 11/ 11 1017.2R
YORK RVR RNG VA  0348   53     350/  3/  4 1016.2R
YORKTOWN VA      0348   58 46  320/  3/  4 1016.6R
JAMESTOWN VA     0400   52 49  320/  6/  6   N/A     0
DOMINION TERM VA 0348   56      70/  1/  2 1016.9R
KIPTOPEKE VA     0348          270/  2/  2   N/A
CHES BAY BRIDGE  0348   55 46  280/  3/  4 1016.8R
CAPE HENRY VA    0348   59     250/  3/  3   N/A
WILLOUBY STN VA  0348          100/  1/  2   N/A
S CRANEY ISL VA  0348   52      30/  3/  4 1016.6R
CAPE HENRY BUOY  0342      47                N/A     2/ 8
OFFSHORE WE BUOY 0351      48                N/A     2/ 7
64NM E OF VA BCH 0350   52 51  250/  4/  4 1016.1R   2/ 7   2/ 7
DUCK PIER NC     0348   55 48  200/  4/  5 1016.3R
44100 DUCK FRF   0305      48                N/A     2/ 8
44056 DUCK FRF   0330      49                N/A     1/ 7
OREGON INLET NC  0342   53 51  240/  1/  2 1017.1R
HATTERAS NC      0348   56 57   CALM  /  3 1016.8R
DIAMOND SHLS NC  0350   63 67  360/  8/ 10 1016.9R   2/ 8   2/ 8
CAPE LOOKOUT NC  0400   58     280/  5/  5 1017.0R
$$



USA.gov is the U.S. government's official web portal to all federal, state and local government web resources and services.